Mexia Limestone County Airpor, TX

8:31 AM CST on February 22, 2018 (GMT -0600)
Mexia-Limestone County

Weather History for KLXY - March, 2014

Change the Weather History Date:

Saturday, March 29, 2014

  Actual Average (KACT) Record (KACT)
Temperature  
Mean Temperature 58 °F -  
Max Temperature 70 °F 70 °F 94 °F (1902)
Min Temperature 46 °F 50 °F 30 °F (1987)
Degree Days  
Heating Degree Days 7    
Growing Degree Days 8 (Base 50)    
Moisture  
Dew Point 42 °F    
Average Humidity 58    
Maximum Humidity 87    
Minimum Humidity 32    
Precipitation  
Precipitation 0.00 in - - ()
Sea Level Pressure  
Sea Level Pressure 30.18 in    
Wind  
Wind Speed 10 mph (North)    
Max Wind Speed 15 mph    
Max Gust Speed 22 mph    
Visibility 10 miles    
Events      
Averages and records for this station are not official NWS values.
T = Trace of Precipitation, MM = Missing Value Source: NWS Daily Summary

Daily Weather History Graph

Daily Weather History Graph

Search for Another Location

Airport or City:

Trip Planner

Search our weather history database for the weather conditions in past years. The results will help you decide how hot, cold, wet, or windy it might be!

Date:

Astronomy

Mar. 29, 2014 Rise Set
Actual Time 7:18 AM CDT 7:43 PM CDT
Civil Twilight 6:53 AM CDT 8:08 PM CDT
Nautical Twilight 6:25 AM CDT 8:36 PM CDT
Astronomical Twilight 5:56 AM CDT 9:05 PM CDT
Moon 6:23 AM CDT (3/29) 6:52 PM CDT (3/29)
Length of Visible Light 13h 14m
Length of Day
12h 25m
Waning Crescent, 2% of the Moon is Illuminated
Mar 29
Waning Crescent
Mar 30
New
Apr 7
First Quarter
Apr 15
Full
Apr 22
Last Quarter

Hourly Weather History & Observations

Time (CDT) Temp. Windchill Dew Point Humidity Pressure Visibility Wind Dir Wind Speed Gust Speed Precip Events Conditions
12:15 AM 55.6 °F - 49.5 °F 80% 30.03 in 10.0 mi North 12.7 mph 18.4 mph N/A   Clear
12:35 AM 55.6 °F - 47.7 °F 75% 30.03 in 10.0 mi North 11.5 mph 21.9 mph N/A   Clear
12:55 AM 54.9 °F - 46.9 °F 75% 30.03 in 10.0 mi North 9.2 mph - N/A   Clear
1:15 AM 54.0 °F - 46.8 °F 77% 30.04 in 10.0 mi NNW 12.7 mph 17.3 mph N/A   Clear
1:35 AM 53.8 °F - 45.5 °F 74% 30.05 in 10.0 mi NNW 13.8 mph 21.9 mph N/A   Clear
1:55 AM 52.9 °F - 44.6 °F 73% 30.08 in 10.0 mi NNW 9.2 mph - N/A   Clear
2:15 AM 52.7 °F - 44.4 °F 73% 30.09 in 10.0 mi NNW 15.0 mph 18.4 mph N/A   Clear
2:35 AM 51.8 °F - 44.2 °F 75% 30.07 in 10.0 mi North 11.5 mph - N/A   Clear
2:55 AM 51.4 °F - 44.1 °F 76% 30.08 in 10.0 mi North 10.4 mph - N/A   Clear
3:15 AM 50.7 °F - 43.9 °F 77% 30.08 in 10.0 mi North 10.4 mph - N/A   Clear
3:35 AM 50.0 °F - 43.7 °F 79% 30.08 in 10.0 mi NNW 11.5 mph - N/A   Clear
3:55 AM 49.8 °F - 43.7 °F 79% 30.08 in 10.0 mi North 10.4 mph - N/A   Clear
4:15 AM 49.1 °F - 43.7 °F 82% 30.09 in 10.0 mi NNW 11.5 mph - N/A   Clear
4:35 AM 48.7 °F - 43.5 °F 82% 30.09 in 10.0 mi NNW 13.8 mph - N/A   Clear
4:55 AM 48.7 °F - 43.7 °F 83% 30.10 in 10.0 mi North 13.8 mph 18.4 mph N/A   Clear
5:15 AM 48.2 °F - 43.3 °F 83% 30.09 in 10.0 mi North 13.8 mph 18.4 mph N/A   Scattered Clouds
5:35 AM 48.2 °F - 43.2 °F 83% 30.10 in 10.0 mi North 11.5 mph - N/A   Clear
5:55 AM 48.0 °F - 43.2 °F 83% 30.11 in 10.0 mi North 11.5 mph - N/A   Clear
6:15 AM 47.7 °F - 43.0 °F 84% 30.12 in 10.0 mi North 11.5 mph 17.3 mph N/A   Clear
6:35 AM 47.3 °F - 43.0 °F 85% 30.13 in 10.0 mi North 9.2 mph - N/A   Clear
6:55 AM 46.6 °F - 42.8 °F 87% 30.14 in 10.0 mi NNW 9.2 mph - N/A   Clear
7:15 AM 46.4 °F 41.5 °F 42.8 °F 87% 30.15 in 10.0 mi NNW 10.4 mph - N/A   Clear
7:35 AM 46.6 °F - 42.4 °F 85% 30.17 in 10.0 mi NNW 10.4 mph - N/A   Clear
7:55 AM 46.6 °F - 42.3 °F 85% 30.17 in 10.0 mi NNW 11.5 mph - N/A   Clear
8:15 AM 47.3 °F - 42.3 °F 83% 30.18 in 10.0 mi NNW 10.4 mph - N/A   Clear
8:35 AM 48.2 °F - 42.8 °F 82% 30.20 in 10.0 mi North 10.4 mph - N/A   Clear
8:55 AM 49.5 °F - 43.3 °F 79% 30.21 in 10.0 mi North 10.4 mph - N/A   Clear
9:15 AM 50.7 °F - 43.7 °F 77% 30.22 in 10.0 mi North 9.2 mph - N/A   Clear
9:35 AM 52.2 °F - 44.8 °F 76% 30.23 in 10.0 mi North 9.2 mph - N/A   Clear
9:55 AM 53.4 °F - 44.8 °F 73% 30.24 in 10.0 mi North 10.4 mph - N/A   Clear
10:15 AM 54.7 °F - 45.1 °F 70% 30.25 in 10.0 mi North 8.1 mph - N/A   Clear
10:35 AM 56.3 °F - 45.0 °F 66% 30.26 in 10.0 mi North 12.7 mph - N/A   Clear
10:55 AM 57.6 °F - 45.7 °F 65% 30.27 in 10.0 mi North 10.4 mph - N/A   Clear
11:15 AM 59.0 °F - 46.6 °F 63% 30.28 in 10.0 mi North 9.2 mph - N/A   Clear
11:35 AM 60.4 °F - 46.6 °F 60% 30.28 in 10.0 mi North 6.9 mph - N/A   Clear
11:55 AM 62.1 °F - 46.6 °F 57% 30.28 in 10.0 mi North 10.4 mph - N/A   Clear
12:15 PM 63.1 °F - 46.0 °F 54% 30.28 in 10.0 mi North 9.2 mph - N/A   Clear
12:35 PM 64.4 °F - 45.1 °F 50% 30.27 in 10.0 mi North 10.4 mph - N/A   Clear
12:55 PM 65.1 °F - 46.0 °F 50% 30.27 in 10.0 mi North 10.4 mph - N/A   Clear
1:15 PM 66.0 °F - 44.6 °F 46% 30.27 in 10.0 mi NNE 9.2 mph - N/A   Clear
1:35 PM 67.1 °F - 43.7 °F 43% 30.26 in 10.0 mi NNE 8.1 mph - N/A   Clear
1:55 PM 68.0 °F - 45.0 °F 43% 30.26 in 10.0 mi North 8.1 mph - N/A   Clear
2:15 PM 68.2 °F - 42.8 °F 40% 30.25 in 10.0 mi NNE 6.9 mph - N/A   Clear
2:35 PM 68.4 °F - 43.2 °F 40% 30.24 in 10.0 mi NNE 10.4 mph 17.3 mph N/A   Clear
2:55 PM 69.1 °F - 41.2 °F 36% 30.24 in 10.0 mi North 9.2 mph 17.3 mph N/A   Clear
3:15 PM 69.3 °F - 42.3 °F 38% 30.23 in 10.0 mi NNE 8.1 mph 19.6 mph N/A   Clear
3:35 PM 69.3 °F - 41.9 °F 37% 30.22 in 10.0 mi NNE 9.2 mph - N/A   Clear
3:55 PM 70.0 °F - 42.3 °F 37% 30.21 in 10.0 mi NNE 8.1 mph - N/A   Clear
4:15 PM 70.3 °F - 42.1 °F 36% 30.20 in 10.0 mi NNE 8.1 mph - N/A   Clear
4:35 PM 70.3 °F - 40.3 °F 34% 30.20 in 10.0 mi North 8.1 mph - N/A   Clear
4:55 PM 70.2 °F - 40.1 °F 34% 30.19 in 10.0 mi North 6.9 mph - N/A   Clear
5:15 PM 70.3 °F - 39.2 °F 32% 30.18 in 10.0 mi North 8.1 mph - N/A   Clear
5:35 PM 70.0 °F - 39.4 °F 33% 30.18 in 10.0 mi North 5.8 mph - N/A   Clear
5:55 PM 70.3 °F - 38.8 °F 32% 30.18 in 10.0 mi NE 6.9 mph - N/A   Clear
6:15 PM 70.0 °F - 39.0 °F 32% 30.18 in 10.0 mi NNE 4.6 mph - N/A   Clear
6:35 PM 69.4 °F - 38.1 °F 32% 30.18 in 10.0 mi North 4.6 mph - N/A   Clear
6:55 PM 68.9 °F - 38.8 °F 33% 30.18 in 10.0 mi NE 4.6 mph - N/A   Clear
7:15 PM 67.6 °F - 40.1 °F 37% 30.19 in 10.0 mi North 3.5 mph - N/A   Clear
7:35 PM 66.4 °F - 39.4 °F 37% 30.20 in 10.0 mi Calm Calm - N/A   Clear
7:55 PM 64.8 °F - 38.3 °F 38% 30.19 in 10.0 mi Calm Calm - N/A   Clear
8:15 PM 64.0 °F - 35.4 °F 35% 30.19 in 10.0 mi Calm Calm - N/A   Clear
8:35 PM 64.0 °F - 34.9 °F 34% 30.20 in 10.0 mi Calm Calm - N/A   Clear
8:55 PM 63.0 °F - 34.7 °F 35% 30.20 in 10.0 mi Calm Calm - N/A   Clear
9:15 PM 61.2 °F - 34.9 °F 37% 30.21 in 10.0 mi Calm Calm - N/A   Clear
9:35 PM 61.0 °F - 34.9 °F 38% 30.22 in 10.0 mi NE 3.5 mph - N/A   Clear
9:55 PM 59.9 °F - 34.7 °F 39% 30.21 in 10.0 mi NE 3.5 mph - N/A   Clear
10:15 PM 60.4 °F - 34.0 °F 37% 30.22 in 10.0 mi NNE 3.5 mph - N/A   Clear
10:35 PM 59.9 °F - 34.7 °F 39% 30.22 in 10.0 mi NNE 3.5 mph - N/A   Clear
10:55 PM 59.9 °F - 34.5 °F 39% 30.22 in 7.0 mi Calm Calm - N/A   Clear
11:15 PM 59.4 °F - 34.5 °F 39% 30.21 in 10.0 mi NNE 3.5 mph - N/A   Clear
11:35 PM 58.5 °F - 34.3 °F 40% 30.21 in 10.0 mi NE 3.5 mph - N/A   Clear
11:55 PM 57.6 °F - 34.9 °F 43% 30.21 in 10.0 mi NE 3.5 mph - N/A   Clear